Regional Weather Roundup
Issued by NWS Kansas City/Pleasant Hill, MO

Home | Current Version | Previous Version | Text Only | Print | Product List | Glossary On
Versions: 1 2 3 4 5 6 7 8 9 10 11 12 13 14 15 16 17 18 19 20 21 22 23 24 25 26 27 28
000
ASUS43 KEAX 170310
RWREAX

WEATHER ROUNDUP FOR EASTERN KANSAS AND NORTHWEST MISSOURI
NATIONAL WEATHER SERVICE KANSAS CITY/PLEASANT HILL MO
1000 PM CDT WED AUG 16 2017

KSZ040-057-103>105-MOZ028-029-037-043-170400-
...KANSAS CITY METROPOLITAN AREA...

CITY           SKY/WX    TMP DP  RH WIND       PRES   REMARKS
K.C. INTL      CLOUDY    74  73  97 SW6       29.84S
K.C. DOWNTOWN  CLOUDY    76  73  91 SW12      29.84R
LEES SUMMIT    CLOUDY    70  70 100 S10       29.86S
OLATHE - IXD   CLOUDY    69  68  96 S9        29.87R
OLATHE - OJC   CLOUDY    68  68 100 S8        29.87R
LAWRENCE       CLOUDY    73  72  96 SE5       29.85R

$$

MOZ001>008-011>017-020>025-030>033-038>040-044>046-053-054-170400-
...NORTHERN AND CENTRAL MISSOURI...

CITY           SKY/WX    TMP DP  RH WIND       PRES   REMARKS
ST. JOSEPH     FOG       74  73  97 SW6       29.83S VSB 3/4
MOSBY          CLOUDY    73  72  94 S3        29.84R
WARRENSBURG    LGT RAIN  68  64  88 S9        29.84F
WHITEMAN AFB   LGT RAIN  69  69  99 SW12      29.84F
CLINTON        LGT RAIN  68  68 100 SW7       29.90R
SEDALIA        CLOUDY    69  69 100 SE8       29.85F
WARSAW         NOT AVBL
CHILLICOTHE      N/A     73  72  96 CALM      29.83S
KIRKSVILLE     CLOUDY    75  73  93 SW7       29.82R

$$

MOZ041-047>049-056>058-063>065-088>090-097-170400-
...EASTERN AND SOUTHERN MISSOURI...

CITY           SKY/WX    TMP DP  RH WIND       PRES   REMARKS
ST. LOUIS INTL CLOUDY    72  69  90 VRB6      29.90F
SPIRIT OF STL  MOCLDY    71  69  93 S3        29.89S
COLUMBIA       LGT RAIN  73  71  93 E9        29.88S
JEFFERSON CITY CLOUDY    75  73  93 VRB6G20   29.88S
ROLLA          LGT RAIN  69  67  93 NW17G30   29.97R FOG
OSAGE BEACH    HVY RAIN  68  67  96 W10       29.97R FOG
SPRINGFIELD    LGT RAIN  77  76  96 SW6       29.92F
BRANSON        CLOUDY    77  73  88 CALM      29.96F
JOPLIN         TSTM      69  69 100 NW8       30.00R VSB 1
WEST PLAINS    CLOUDY    80  72  76 S6        29.97R

$$

IAZ060-094-KSZ022-034>040-054-083-096-NEZ052-066-093-170400-
...KANSAS...SOUTHEAST NEBRASKA AND IOWA...

CITY           SKY/WX    TMP DP  RH WIND       PRES   REMARKS
TOPEKA         CLOUDY    74  70  87 SW3       29.85R
MANHATTAN      CLOUDY    72  69  90 CALM      29.86R
EMPORIA        CLOUDY    73  70  90 S5        29.89R
CHANUTE        LGT RAIN  71  69  93 SE10      29.88S
WICHITA        CLOUDY    75  68  78 N3        29.90R
OMAHA          DRIZZLE   71  65  81 NW16G26   29.82R
LINCOLN        MOCLDY    71  63  75 NW10      29.88R
FALLS CITY     CLOUDY    74  65  73 SW6       29.82R
LAMONI         CLOUDY    74  69  85 SW7       29.81R
DES MOINES     CLOUDY    76  66  71 SW12      29.75S

$$





USA.gov is the U.S. government's official web portal to all federal, state and local government web resources and services.